(103517) = 2000 BE5 = 2000 AQ205

Discovered at Socorro on 2000-01-27 by LINEAR.

Orbit

Orbit type: Main Belt

Note: WebGL enabled browser required.

epoch2024-03-31.0
epoch JD2460400.5
perihelion date2023-05-14.56239
perihelion JD2460079.06239
argument of perihelion (°)339.54169
ascending node (°)103.12827
inclination (°)4.39845
eccentricity0.1283176
perihelion distance (AU)1.9589341
Tisserand w.r.t. Jupiter3.6
ΔV w.r.t. Earth (km/sec)8.7
semimajor axis (AU)2.2473026
mean anomaly (°)94.03909
mean daily motion (°/day)0.29255780
aphelion distance (AU)2.536
period (years)3.37
P-vector [x]0.12658221
P-vector [y]0.92043233
P-vector [z]0.36983951
Q-vector [x]-0.98914039
Q-vector [y]0.08904953
Q-vector [z]0.11692508
absolute magnitude16.03
phase slope0.15
uncertainty0
referenceE2024-GI3
observations used1417
oppositions16
arc length (days)11465
first opposition used1992
last opposition used2024
residual rms (arc-secs)0.63
perturbers coarse indicatorM-v
perturbers precise indicator003Ek
first observation date used1992-11-21.0
last observation date used2024-04-12.0
computer nameMPCLINUX
JD of orbit computation2456937.488567
perihelion JD uncertainty (days)7.6925E-05
argument of perihelion uncertainty (°)6.6850E-05
ascending node uncertainty (°)6.3066E-05
inclination uncertainty (°)3.2142E-06
eccentricity uncertainty 3.5017E-08
perihelion distance uncertainty (AU)8.0560E-08
Minimum Orbit Intersection Distances (in AU)
for orbit epoch: 2460400.5, reference: E2024-GI3
Mercury1.65283
Venus1.23941
Earth0.97606
Mars0.36971
Jupiter2.65502
Saturn7.0797
Uranus16.2046
Neptune27.6962

Observations

1416 total observations over interval: 1992 11 21.29131 – 2024 03 20.280154
These data are available for download (format description).

Date (UT) J2000 RA J2000 Dec Magn Location Ref
1992 11 21.29131 04 08 57.78 +14 59 00.9 17.9 V 691 – Steward Observatory, Kitt Peak-Spacewatch MPS 175877
1992 11 21.31975 04 08 55.85 +14 58 59.8   691 – Steward Observatory, Kitt Peak-Spacewatch MPS 175877
1992 11 21.34640 04 08 54.04 +14 58 58.7   691 – Steward Observatory, Kitt Peak-Spacewatch MPS 175877
1999 12 18.36696 08 35 19.04 +19 15 19.6 18.4 R 699 – Lowell Observatory-LONEOS MPS 12198
1999 12 18.39243 08 35 18.63 +19 15 25.7   699 – Lowell Observatory-LONEOS MPS 12198
1999 12 18.41791 08 35 18.21 +19 15 33.3   699 – Lowell Observatory-LONEOS MPS 12198
2000 01 06.29760 08 24 19.19 +21 00 50.4 17.8   704 – Lincoln Laboratory ETS, New Mexico MPS 12198
2000 01 06.31225 08 24 18.36 +21 00 58.0 17.6   704 – Lincoln Laboratory ETS, New Mexico MPS 12198
2000 01 06.32689 08 24 17.59 +21 01 03.5 17.2   704 – Lincoln Laboratory ETS, New Mexico MPS 12198
2000 01 06.34163 08 24 16.77 +21 01 09.2 17.3   704 – Lincoln Laboratory ETS, New Mexico MPS 12198
2000 01 06.35626 08 24 15.91 +21 01 15.0 17.3   704 – Lincoln Laboratory ETS, New Mexico MPS 12198
2000 01 13.07976 08 17 46.85 +21 46 26.7 17.7 R 159 – Monte Agliale MPS 9457
2000 01 13.08253 08 17 46.63 +21 46 28.0 17.5 R 159 – Monte Agliale MPS 9457
2000 01 13.08602 08 17 46.43 +21 46 29.3 17.5 R 159 – Monte Agliale MPS 9457
2000 01 13.09013 08 17 46.17 +21 46 30.3 17.7 R 159 – Monte Agliale MPS 9457
2000 01 13.23934 08 17 37.52 +21 47 33.0 17.7 R 699 – Lowell Observatory-LONEOS MPS 12198
2000 01 13.26478 08 17 35.89 +21 47 43.3   699 – Lowell Observatory-LONEOS MPS 12198
2000 01 13.29023 08 17 34.26 +21 47 53.9   699 – Lowell Observatory-LONEOS MPS 12198
2000 01 27.23803 08 02 42.74 +23 17 14.3 17.9   704 – Lincoln Laboratory ETS, New Mexico MPS 10265
2000 01 27.25310 08 02 41.78 +23 17 19.5 18.2   704 – Lincoln Laboratory ETS, New Mexico MPS 10265
2000 01 27.26818 08 02 40.75 +23 17 25.0 18.2   704 – Lincoln Laboratory ETS, New Mexico MPS 10265
2000 01 27.28326 08 02 39.77 +23 17 30.1 18.2   704 – Lincoln Laboratory ETS, New Mexico MPS 10265
2000 01 27.29833 08 02 38.76 +23 17 35.2 17.9   704 – Lincoln Laboratory ETS, New Mexico MPS 10265
2000 01 29.23618 08 00 39.53 +23 28 32.0 18.7   704 – Lincoln Laboratory ETS, New Mexico MPS 10265
2000 01 29.26733 08 00 37.49 +23 28 43.3 18.5   704 – Lincoln Laboratory ETS, New Mexico MPS 10265
2000 01 29.28339 08 00 36.48 +23 28 48.5 18.3   704 – Lincoln Laboratory ETS, New Mexico MPS 10265
2000 01 30.23198 07 59 39.42 +23 33 57.8 17.6   704 – Lincoln Laboratory ETS, New Mexico MPS 10265
2000 01 30.24027 07 59 38.94 +23 34 00.9 18.0   704 – Lincoln Laboratory ETS, New Mexico MPS 10265
2000 01 30.24680 07 59 38.49 +23 34 03.2 18.4   704 – Lincoln Laboratory ETS, New Mexico MPS 10265
2000 01 30.25517 07 59 37.98 +23 34 05.3 18.4   704 – Lincoln Laboratory ETS, New Mexico MPS 10265
2000 01 30.26173 07 59 37.56 +23 34 07.6 18.4   704 – Lincoln Laboratory ETS, New Mexico MPS 10265
2000 01 30.27005 07 59 37.06 +23 34 10.1 19.2   704 – Lincoln Laboratory ETS, New Mexico MPS 10265
2000 01 30.27660 07 59 36.63 +23 34 12.2 19.0   704 – Lincoln Laboratory ETS, New Mexico MPS 10265
2000 01 30.28500 07 59 36.08 +23 34 14.3 18.6   704 – Lincoln Laboratory ETS, New Mexico MPS 10265
2000 01 31.23804 07 58 39.76 +23 39 18.6 18.5   704 – Lincoln Laboratory ETS, New Mexico MPS 10265
2000 01 31.25300 07 58 38.83 +23 39 23.6 18.8   704 – Lincoln Laboratory ETS, New Mexico MPS 10265
2000 01 31.26785 07 58 37.93 +23 39 28.1 18.4   704 – Lincoln Laboratory ETS, New Mexico MPS 10265
2000 02 01.18459 07 57 44.97 +23 44 11.8 18.1 V 691 – Steward Observatory, Kitt Peak-Spacewatch MPS 10265
2000 02 01.19346 07 57 44.43 +23 44 14.6 18.5 V 691 – Steward Observatory, Kitt Peak-Spacewatch MPS 10265
2000 02 01.20169 07 57 43.94 +23 44 17.2 18.5 V 691 – Steward Observatory, Kitt Peak-Spacewatch MPS 10265
2000 02 07.37556 07 52 15.80 +24 12 53.6 18.4 R 703 – Catalina Sky Survey MPS 10265
2000 02 07.38727 07 52 15.24 +24 12 55.8 18.5 R 703 – Catalina Sky Survey MPS 10265
2000 02 07.39901 07 52 14.62 +24 12 58.2 18.4 R 703 – Catalina Sky Survey MPS 10265
2000 02 07.41066 07 52 14.05 +24 13 02.4 18.1 R 703 – Catalina Sky Survey MPS 10265
2000 02 11.17315 07 49 27.71 +24 27 27.6 19.1   704 – Lincoln Laboratory ETS, New Mexico MPS 10265
2000 02 11.20170 07 49 26.46 +24 27 34.3 18.9   704 – Lincoln Laboratory ETS, New Mexico MPS 10265
2000 02 11.21629 07 49 25.77 +24 27 37.6 19.4   704 – Lincoln Laboratory ETS, New Mexico MPS 10265
2000 02 11.23054 07 49 25.14 +24 27 39.0 18.9   704 – Lincoln Laboratory ETS, New Mexico MPS 10265
2002 09 05.35150 02 56 58.98 +10 06 54.9 19.2   704 – Lincoln Laboratory ETS, New Mexico MPS 67585
2002 09 05.36787 02 56 59.47 +10 06 53.5 19.5   704 – Lincoln Laboratory ETS, New Mexico MPS 67585
2002 09 05.41290 02 57 00.92 +10 06 52.6 19.7   704 – Lincoln Laboratory ETS, New Mexico MPS 67585
2002 10 02.40695 03 01 30.98 +09 21 21.0 18.4   704 – Lincoln Laboratory ETS, New Mexico MPS 62837
2002 10 02.42322 03 01 30.65 +09 21 17.3 18.5   704 – Lincoln Laboratory ETS, New Mexico MPS 62837
2002 10 02.43822 03 01 30.36 +09 21 14.1 18.5   704 – Lincoln Laboratory ETS, New Mexico MPS 62837
2002 10 02.45316 03 01 30.00 +09 21 11.1 18.7   704 – Lincoln Laboratory ETS, New Mexico MPS 62837
2002 10 03.31848 03 01 14.37 +09 18 22.0 18.3   704 – Lincoln Laboratory ETS, New Mexico MPS 62837
2002 10 03.32394 03 01 14.34 +09 18 20.2 18.6   704 – Lincoln Laboratory ETS, New Mexico MPS 62837
2002 10 03.32582 03 01 14.23 +09 18 21.1 18.7   704 – Lincoln Laboratory ETS, New Mexico MPS 62837
2002 10 03.33398 03 01 14.05 +09 18 19.2 18.4   704 – Lincoln Laboratory ETS, New Mexico MPS 62837
2002 10 03.33905 03 01 13.98 +09 18 17.8 19.0   704 – Lincoln Laboratory ETS, New Mexico MPS 62837
2002 10 03.34154 03 01 13.92 +09 18 18.6 19.3   704 – Lincoln Laboratory ETS, New Mexico MPS 62837
2002 10 03.34923 03 01 13.75 +09 18 16.2 18.7   704 – Lincoln Laboratory ETS, New Mexico MPS 62837
2002 10 03.35453 03 01 13.64 +09 18 14.2 19.2   704 – Lincoln Laboratory ETS, New Mexico MPS 62837
2002 10 03.35738 03 01 13.56 +09 18 15.4 19.3   704 – Lincoln Laboratory ETS, New Mexico MPS 62837
2002 10 03.36517 03 01 13.44 +09 18 13.7 19.4   704 – Lincoln Laboratory ETS, New Mexico MPS 62837
2002 10 03.37024 03 01 13.22 +09 18 09.7 19.2   704 – Lincoln Laboratory ETS, New Mexico MPS 62837
2002 10 03.37348 03 01 13.14 +09 18 11.0 19.5   704 – Lincoln Laboratory ETS, New Mexico MPS 62837
2002 10 03.38062 03 01 13.04 +09 18 09.7 18.4   704 – Lincoln Laboratory ETS, New Mexico MPS 62837
2002 10 03.38569 03 01 12.93 +09 18 08.1 19.3   704 – Lincoln Laboratory ETS, New Mexico MPS 62837
2002 10 03.38946 03 01 12.83 +09 18 08.3 19.0   704 – Lincoln Laboratory ETS, New Mexico MPS 62837
2002 10 06.52820 03 00 01.17 +09 07 16.2 19.3   608 – Haleakala-AMOS MPS 62837
2002 10 06.53859 03 00 00.88 +09 07 14.4 19.0   608 – Haleakala-AMOS MPS 62837
2002 10 06.54900 03 00 00.58 +09 07 11.9 19.2   608 – Haleakala-AMOS MPS 62837
2002 10 09.27443 02 58 42.28 +08 57 04.2 18.0 R 699 – Lowell Observatory-LONEOS MPS 62837
2002 10 09.29550 02 58 41.58 +08 56 59.6   699 – Lowell Observatory-LONEOS MPS 62837
2002 10 09.31657 02 58 40.84 +08 56 55.0   699 – Lowell Observatory-LONEOS MPS 62837
2002 10 09.33757 02 58 40.15 +08 56 49.9   699 – Lowell Observatory-LONEOS MPS 62837
2002 10 11.31690 02 57 33.59 +08 49 10.9 18.5   704 – Lincoln Laboratory ETS, New Mexico MPS 62837
2002 10 11.33233 02 57 33.02 +08 49 07.7 18.8   704 – Lincoln Laboratory ETS, New Mexico MPS 62837
2002 10 11.34823 02 57 32.36 +08 49 03.4 18.7   704 – Lincoln Laboratory ETS, New Mexico MPS 62837
2002 10 11.36431 02 57 31.79 +08 48 59.2 18.7   704 – Lincoln Laboratory ETS, New Mexico MPS 62837
2002 10 11.37942 02 57 31.20 +08 48 56.0 18.4   704 – Lincoln Laboratory ETS, New Mexico MPS 62837
2002 10 26.61981 02 45 20.45 +07 46 17.9 18.6   608 – Haleakala-AMOS MPS 65527
2002 10 26.63128 02 45 19.75 +07 46 14.8 18.9   608 – Haleakala-AMOS MPS 65527
2002 10 26.64256 02 45 19.10 +07 46 11.8 19.2   608 – Haleakala-AMOS MPS 65527
2002 10 30.32187 02 41 41.99 +07 31 41.3 17.1   644 – Palomar Mountain/NEAT MPS 65527
